User: anonymous   Login
Location: Betra
(48.4113°N, 8.6634°E)
Time: 07:19:32
(UTC+00:00)
Language:

Cosmos 1455 - Orbit

View from above orbital plane
View from above orbital plane
View from above satellite
View from above satellite

Ground track
Ground track

The orbit data is extracted from the following two-line orbital elements,

1 14032U 83037A   24194.82222406  .00019271  00000-0  50373-3 0  9998
2 14032  82.5063  41.1777 0009449 255.2269 104.7929 15.38590675253696
Epoch (UTC): 12 July 2024 19:44:00
Eccentricity: 0.0009449
inclination: 82.5063°
perigee height: 444 km
apogee height: 457 km
right ascension of ascending node: 41.1777°
argument of perigee: 255.2269°
revolutions per day: 15.38590675
mean anomaly at epoch: 104.7929°
orbit number at epoch: 25369

The dashed part of the orbit path shows where the satellite is in the earth's shadow,  

DLR